Terminal Aerodrome Forecast
Issued by NWS Sterling, VA

Current Version | Previous Version | Graphics & Text | Print | Product List | Glossary On
Versions: 1 2 3 4 5 6 7 8 9 10 11 12 13 14 15 16 17 18 19 20 21 22 23 24
000
FTUS41 KLWX 200500
TAFDCA
TAF
KDCA 200540Z 2006/2106 07003KT P6SM -SHRA OVC080
     FM200900 05005KT P6SM OVC090
     FM201400 10006KT P6SM OVC070=

USA.gov is the U.S. government's official web portal to all federal, state and local government web resources and services.